Wind_Speed
25 23 21 19 18 18 17 17 18 18 18 18 18 19 20 21 22 22 22 22 23 24 24 24 24 25 25 25 25 26 27 26 26 25 25 25 25 26 26 27 28 29 30
23 20 18 16 16 16 16 16 17 17 17 18 18 18 19 20 21 20 20 21 22 23 23 23 24 24 23 24 25 25 25 26 25 24 23 23 24 25 26 27 28 29 30
21 18 16 14 15 16 16 16 16 16 16 17 17 18 18 19 19 19 20 20 21 22 22 22 23 23 23 24 24 24 24 24 24 24 24 24 24 25 26 27 27 27 28
19 17 15 14 15 15 16 17 17 16 16 17 17 17 17 18 19 19 20 21 22 22 22 23 24 24 24 23 23 23 24 24 24 24 24 25 25 25 25 26 26 27 28
17 16 15 15 15 15 15 16 16 15 16 15 15 15 16 17 18 19 20 20 21 23 23 23 24 24 24 24 23 24 24 24 25 24 24 24 25 25 25 26 26 27 28
16 16 15 14 15 15 15 15 15 15 14 14 14 14 15 17 17 19 20 20 21 22 22 23 23 23 24 24 24 25 25 25 25 25 24 24 24 24 24 24 25 25 25
16 15 15 15 14 14 15 14 14 14 14 14 14 14 16 17 17 19 19 20 21 22 23 22 22 23 23 24 25 25 25 25 25 25 25 24 24 23 23 23 23 24 25
15 16 15 14 14 14 14 14 13 14 14 13 13 14 15 16 18 18 19 21 22 22 22 22 22 23 23 24 25 25 25 25 26 26 25 23 23 23 23 23 23 23 24
15 16 15 15 15 14 14 13 13 14 14 13 13 14 15 16 18 18 19 20 21 22 22 22 23 24 24 24 25 25 25 26 25 25 24 23 23 23 23 23 23 24 23
16 16 15 15 15 15 14 13 14 14 13 12 12 13 14 16 17 18 19 20 21 21 22 23 24 24 24 25 25 25 24 24 24 23 23 23 22 22 22 22 23 23 24
15 15 15 15 14 14 13 12 12 13 13 12 13 13 15 16 17 18 20 20 21 22 23 24 24 25 25 25 26 25 25 24 24 23 23 23 22 21 21 21 22 23 23
14 14 14 15 14 13 12 12 12 12 12 12 13 14 15 17 18 19 20 21 22 23 24 24 24 25 26 26 26 26 25 24 24 24 23 23 22 21 22 22 22 23 23
13 13 13 13 13 12 12 12 12 11 12 13 13 14 15 17 19 21 21 22 23 24 24 24 25 26 26 27 27 26 26 25 25 25 24 23 22 22 22 21 22 22 23
13 12 12 12 11 11 11 12 12 13 13 14 14 15 16 18 19 21 22 23 24 24 25 25 25 26 27 27 28 27 26 26 26 25 25 23 22 21 20 20 21 21 21
12 12 12 11 11 11 12 12 12 12 13 14 15 15 17 18 20 22 23 24 25 25 25 25 26 26 27 27 28 27 27 27 26 25 24 23 22 21 21 21 21 22 21
11 11 11 11 11 11 11 12 12 12 13 14 15 16 18 19 21 22 23 24 25 26 26 26 26 27 28 28 28 28 28 27 27 26 25 24 23 22 21 22 22 21 20
10 10 10 10 11 11 11 11 12 12 13 14 16 17 19 20 22 23 25 26 26 26 27 27 27 28 29 30 29 28 28 28 28 27 26 25 24 22 22 22 22 21 20
8 8 9 9 10 10 11 11 11 12 13 14 15 17 19 21 23 24 25 26 27 27 27 28 28 30 30 30 30 29 29 29 29 28 27 25 23 23 23 22 22 21 20
6 7 8 8 9 9 9 10 11 12 13 14 16 17 20 22 24 25 26 26 27 28 28 29 29 30 31 31 31 30 30 29 29 28 27 26 24 23 23 23 22 21 19
6 6 7 8 8 8 8 9 10 12 14 15 16 18 21 23 24 25 26 27 27 28 29 30 31 31 32 32 32 32 31 30 29 28 27 26 25 24 24 23 22 21 19
5 6 6 6 6 6 7 8 10 12 13 15 17 19 21 23 24 25 26 27 28 29 30 31 32 33 33 33 33 33 32 31 30 29 27 26 25 25 24 23 22 21 20
5 5 5 5 5 6 7 8 10 12 14 15 17 19 22 23 24 25 26 28 29 30 31 32 33 34 35 35 34 34 33 32 31 30 28 27 26 25 25 24 24 23 22
5 4 3 3 4 5 6 8 9 11 14 15 17 19 21 23 24 26 27 28 29 30 31 32 33 34 35 35 35 35 34 33 32 30 29 28 28 27 26 25 25 24 23
4 3 3 3 3 5 6 8 9 11 13 15 17 19 20 22 24 26 27 28 29 30 32 33 34 34 35 35 36 36 35 34 33 32 30 30 29 29 28 27 26 26 25
4 3 3 2 3 4 5 7 9 11 13 15 17 18 20 22 24 25 27 29 30 31 32 33 34 35 36 35 35 35 35 35 35 34 32 31 30 30 29 28 27 26 26
4 3 2 2 3 4 5 7 9 11 13 15 17 18 20 22 24 25 27 29 30 31 32 33 35 36 36 35 35 35 36 36 36 35 34 32 31 30 29 29 28 27 26
Wind_Direction
315 312 310 306 305 303 299 294 293 296 296 294 296 298 299 300 302 302 300 299 302 303 303 302 302 300 299 300 299 297 296 295 293 290 287 283 277 274 272 270 268 264 263
318 315 313 308 306 306 306 300 297 299 299 299 298 300 301 303 304 304 304 304 305 306 306 305 305 304 302 303 303 302 300 297 295 292 289 285 281 278 275 274 270 267 264
322 317 312 309 309 306 309 304 301 302 302 301 300 301 303 306 308 308 308 309 309 310 311 313 311 308 306 306 306 306 305 302 298 295 291 286 283 279 277 275 271 269 267
324 321 318 313 314 312 311 310 309 305 302 303 302 304 305 308 310 311 312 312 312 313 315 315 314 312 310 309 309 307 305 304 302 298 295 289 284 281 277 276 273 271 271
328 324 320 317 316 315 316 314 313 310 303 305 308 307 308 311 314 315 316 315 315 316 317 316 314 315 314 311 310 309 309 307 306 303 298 293 288 284 281 279 277 274 272
331 328 323 321 320 319 318 317 317 316 309 306 311 311 311 313 317 319 319 320 320 322 320 319 319 318 316 314 312 310 310 309 308 306 301 297 292 288 285 283 282 278 274
335 334 330 326 324 323 322 320 320 319 315 312 316 315 314 316 320 321 321 325 326 325 324 322 320 319 317 317 316 315 313 312 311 308 304 300 295 290 287 285 283 280 279
338 339 338 335 331 327 325 324 323 323 321 318 321 321 322 324 325 326 327 329 329 328 327 326 325 322 320 320 319 317 316 314 313 311 308 303 299 294 289 288 285 283 281
340 341 343 341 337 333 331 329 328 330 327 321 323 327 329 332 332 332 332 331 332 333 333 331 329 327 326 324 323 322 319 317 315 313 311 306 302 296 292 289 287 285 282
339 340 343 343 342 340 338 334 332 335 334 329 332 334 338 339 338 337 338 337 337 336 335 334 332 331 329 328 327 325 322 320 317 315 313 309 303 298 295 292 290 289 285
339 342 345 345 343 344 345 344 345 348 347 346 346 344 343 343 342 342 342 343 343 341 339 337 336 334 332 332 332 329 327 324 322 319 316 312 306 302 299 295 292 292 290
341 343 345 348 349 349 351 353 356 356 353 351 351 350 349 348 347 347 347 346 345 345 343 340 339 338 337 337 336 335 332 329 327 324 320 316 309 303 300 297 295 293 292
342 342 345 349 353 354 356 358 359 359 358 357 355 352 352 352 352 351 351 351 350 348 346 344 343 342 341 340 339 337 334 333 331 329 324 319 314 308 303 300 297 294 293
350 352 353 354 357 1 3 3 2 0 358 358 358 356 354 353 355 355 354 354 352 351 350 348 347 347 346 344 342 340 337 335 334 332 330 326 322 317 311 307 304 300 298
349 353 355 356 359 2 4 4 3 3 3 3 360 357 355 355 356 357 357 357 356 354 352 352 352 351 349 348 346 346 344 343 340 338 336 333 329 323 318 314 311 307 302
347 353 357 2 4 3 4 5 5 7 7 5 3 1 360 359 360 1 1 0 358 357 357 358 356 354 353 351 350 348 347 345 343 342 339 336 333 329 324 320 317 313 307
344 351 358 1 1 2 4 6 8 12 13 11 8 7 5 3 3 3 2 1 359 359 358 358 357 355 353 352 351 350 348 347 346 345 343 340 337 335 330 326 325 321 315
341 348 355 357 358 3 7 9 11 12 12 10 8 6 4 4 4 2 1 1 1 0 359 357 356 355 354 353 352 350 348 347 346 346 344 343 342 341 337 332 330 328 322
338 346 351 353 356 1 7 10 12 11 10 8 6 4 2 2 3 3 2 1 0 360 359 358 357 356 355 354 354 352 350 349 348 347 346 346 344 343 341 337 334 332 329
330 339 344 347 351 358 5 6 8 8 7 6 5 4 2 3 3 3 2 2 1 360 359 359 359 358 356 356 355 354 352 351 349 348 347 347 347 347 346 343 340 338 334
316 329 336 342 348 353 359 1 5 6 5 4 3 3 3 3 3 3 2 2 2 1 0 360 0 360 359 357 357 356 355 353 352 353 351 350 348 347 347 345 343 341 339
306 316 327 339 346 350 354 358 4 4 3 3 3 2 3 4 4 3 2 1 1 2 2 1 0 0 360 359 358 357 357 356 355 355 354 352 350 347 346 346 345 343 341
292 299 312 329 343 350 356 1 2 2 2 3 2 3 4 4 4 3 2 1 1 1 1 1 1 0 0 0 360 358 358 357 356 356 355 354 352 350 348 347 345 344 341
279 282 294 313 333 342 351 358 359 359 360 1 2 3 4 4 4 4 3 3 2 1 0 360 359 360 360 0 1 1 1 0 359 357 356 355 353 351 349 347 346 346 344
263 264 277 298 324 337 346 351 354 356 358 359 360 2 3 3 3 3 2 2 2 2 1 1 0 360 359 360 1 1 2 2 1 360 358 356 354 352 351 350 349 347 346
241 246 260 287 314 329 339 345 349 352 356 357 357 359 360 0 0 360 360 359 359 360 0 0 0 0 0 1 2 2 3 3 1 0 359 357 356 354 352 351 351 350 349
Height
5746 5743 5740 5738 5737 5736 5735 5734 5734 5733 5731 5730 5729 5727 5725 5723 5721 5719 5716 5714 5711 5708 5705 5702 5699 5696 5693 5690 5687 5684 5681 5679 5677 5676 5673 5672 5671 5670 5670 5669 5669 5669 5669
5741 5738 5735 5734 5733 5732 5731 5730 5729 5728 5726 5725 5724 5722 5720 5718 5716 5714 5711 5708 5706 5703 5699 5696 5693 5689 5686 5683 5680 5677 5674 5672 5670 5668 5666 5665 5664 5663 5662 5661 5661 5661 5661
5737 5734 5732 5731 5730 5728 5727 5726 5724 5723 5722 5720 5719 5717 5716 5714 5712 5709 5706 5703 5700 5697 5694 5690 5687 5683 5680 5677 5673 5670 5667 5664 5662 5660 5659 5657 5656 5655 5654 5653 5652 5652 5651
5734 5732 5729 5728 5726 5725 5724 5722 5720 5719 5717 5716 5714 5713 5712 5710 5707 5705 5702 5699 5696 5692 5689 5685 5681 5678 5674 5671 5668 5664 5661 5658 5655 5653 5651 5649 5648 5646 5645 5644 5644 5643 5642
5732 5729 5727 5725 5724 5722 5720 5719 5717 5715 5713 5711 5710 5709 5707 5705 5703 5700 5698 5695 5691 5687 5684 5680 5676 5672 5668 5665 5662 5659 5655 5652 5648 5646 5643 5641 5640 5638 5637 5636 5635 5634 5633
5730 5727 5725 5723 5721 5719 5717 5715 5713 5712 5710 5708 5707 5705 5704 5702 5699 5697 5693 5690 5687 5683 5679 5675 5670 5667 5663 5659 5656 5652 5649 5645 5642 5639 5636 5634 5632 5630 5629 5628 5626 5625 5624
5729 5726 5723 5721 5718 5716 5714 5712 5711 5709 5707 5705 5704 5703 5701 5698 5696 5693 5690 5686 5682 5678 5674 5670 5666 5662 5658 5654 5650 5645 5642 5637 5634 5632 5629 5626 5624 5623 5621 5620 5618 5617 5616
5728 5725 5721 5718 5716 5714 5712 5710 5708 5706 5704 5703 5701 5700 5698 5695 5692 5689 5686 5683 5679 5674 5670 5665 5661 5657 5653 5649 5644 5640 5636 5632 5628 5625 5622 5619 5617 5615 5613 5612 5610 5609 5608
5727 5723 5720 5717 5714 5712 5710 5708 5706 5704 5702 5701 5699 5697 5695 5692 5689 5686 5683 5680 5675 5670 5666 5662 5657 5652 5648 5643 5639 5635 5630 5626 5622 5619 5615 5612 5610 5607 5606 5604 5603 5602 5601
5725 5723 5719 5716 5713 5711 5708 5706 5704 5702 5700 5699 5697 5695 5692 5690 5687 5684 5681 5676 5672 5667 5663 5658 5653 5648 5643 5638 5633 5629 5625 5621 5617 5613 5610 5606 5603 5601 5599 5597 5596 5594 5593
5724 5721 5718 5715 5712 5710 5707 5705 5703 5701 5699 5697 5695 5693 5691 5688 5685 5682 5678 5674 5669 5664 5659 5654 5649 5643 5638 5633 5628 5624 5619 5615 5611 5607 5603 5600 5597 5595 5592 5590 5588 5587 5585
5723 5720 5718 5715 5712 5709 5707 5705 5702 5700 5699 5697 5694 5692 5690 5687 5684 5680 5676 5671 5666 5661 5656 5651 5645 5640 5635 5629 5624 5619 5614 5610 5606 5602 5598 5594 5591 5589 5586 5584 5581 5579 5577
5723 5720 5717 5714 5712 5709 5707 5705 5703 5701 5699 5696 5694 5691 5689 5686 5682 5678 5674 5669 5664 5658 5653 5648 5642 5637 5631 5626 5620 5615 5610 5605 5601 5597 5593 5589 5585 5582 5580 5577 5574 5572 5570
5722 5719 5716 5714 5712 5710 5708 5705 5703 5701 5699 5696 5694 5691 5688 5685 5681 5677 5672 5667 5662 5657 5651 5646 5640 5634 5628 5623 5617 5612 5606 5602 5597 5593 5588 5584 5580 5576 5573 5571 5568 5565 5563
5721 5719 5716 5714 5712 5710 5708 5706 5704 5702 5699 5697 5694 5691 5688 5685 5681 5676 5671 5666 5661 5655 5650 5644 5638 5633 5627 5621 5615 5609 5604 5598 5593 5588 5584 5579 5575 5571 5568 5565 5562 5559 5556
5721 5719 5717 5715 5713 5711 5709 5707 5704 5702 5700 5697 5694 5691 5688 5684 5680 5676 5671 5666 5660 5654 5649 5643 5637 5632 5626 5620 5614 5608 5602 5596 5591 5585 5580 5576 5571 5567 5563 5560 5556 5553 5550
5720 5719 5717 5715 5714 5712 5709 5707 5705 5703 5700 5698 5695 5692 5689 5685 5680 5676 5671 5665 5660 5654 5648 5642 5637 5631 5625 5618 5612 5606 5600 5594 5588 5582 5577 5572 5568 5563 5559 5555 5551 5548 5545
5720 5718 5717 5715 5714 5712 5710 5708 5706 5704 5701 5699 5696 5693 5689 5685 5681 5675 5670 5665 5660 5654 5648 5642 5636 5630 5624 5617 5610 5604 5598 5591 5585 5580 5574 5569 5564 5560 5555 5551 5547 5543 5540
5719 5718 5717 5715 5713 5712 5710 5708 5706 5704 5702 5699 5696 5693 5690 5685 5681 5676 5670 5665 5660 5654 5648 5642 5635 5629 5622 5615 5608 5602 5595 5589 5583 5577 5572 5566 5561 5556 5552 5547 5543 5539 5536
5718 5717 5716 5715 5713 5712 5710 5709 5707 5705 5702 5700 5697 5694 5690 5686 5681 5676 5671 5665 5659 5654 5647 5641 5634 5628 5621 5614 5607 5600 5593 5587 5581 5575 5569 5564 5559 5554 5549 5545 5540 5536 5533
5717 5716 5715 5714 5713 5712 5710 5709 5707 5705 5703 5700 5697 5694 5690 5686 5681 5676 5671 5665 5660 5653 5647 5640 5634 5627 5620 5613 5606 5599 5592 5585 5579 5573 5567 5562 5557 5552 5547 5542 5538 5533 5529
5715 5715 5714 5713 5712 5711 5710 5709 5707 5705 5703 5701 5697 5694 5690 5685 5681 5676 5670 5665 5659 5653 5646 5640 5633 5626 5619 5612 5605 5598 5591 5584 5577 5571 5566 5560 5555 5550 5544 5540 5535 5530 5526
5714 5713 5713 5712 5712 5711 5710 5709 5707 5705 5703 5700 5697 5694 5690 5685 5681 5676 5670 5665 5659 5653 5646 5640 5633 5626 5618 5611 5604 5596 5589 5583 5576 5570 5564 5558 5553 5547 5542 5537 5532 5527 5523
5712 5712 5712 5712 5711 5710 5710 5708 5707 5705 5703 5700 5697 5694 5690 5686 5681 5676 5670 5665 5658 5652 5646 5639 5632 5625 5618 5610 5603 5596 5588 5581 5575 5568 5562 5556 5551 5545 5540 5534 5529 5524 5519
5711 5711 5711 5711 5710 5710 5709 5708 5706 5705 5702 5700 5697 5693 5690 5685 5681 5676 5670 5664 5658 5652 5646 5639 5632 5625 5617 5610 5602 5595 5588 5581 5574 5567 5561 5554 5548 5543 5537 5531 5526 5521 5516
5709 5709 5710 5710 5709 5709 5708 5707 5706 5704 5702 5699 5696 5693 5689 5685 5680 5675 5670 5664 5658 5652 5645 5639 5631 5624 5616 5609 5602 5595 5588 5580 5573 5566 5559 5553 5546 5540 5535 5529 5523 5518 5513